GW4724 Weather Reports


time (UTC)temp
C
wind
direction
speed
KPH
gust
KPH
rain 1hr
cm
rain 24hr
cm
rain mn
cm
humidity
%
barometer
mb
20260507185543 19 150 3.2 6.4 0.00 0.00 0.00 42 1011.2
20260507185039 18 27 1.6 3.2 0.00 0.00 0.00 35 1011.1
20260507184538 18 277 8.0 9.7 0.00 0.00 0.00 37 1011.0
20260507184035 18 148 3.2 4.8 0.00 0.00 0.00 38 1011.2
20260507183530 18 40 3.2 9.7 0.00 0.00 0.00 36 1011.2
20260507183028 17 211 1.6 1.6 0.00 0.00 0.00 38 1011.4
20260507182524 17 16 4.8 11.3 0.00 0.00 0.00 38 1011.3
20260507182020 18 261 0.0 3.2 0.00 0.00 0.00 39 1011.4
20260507181517 17 113 8.0 11.3 0.00 0.00 0.00 38 1011.4
20260507181013 17 144 4.8 9.7 0.00 0.00 0.00 39 1011.6
20260507180510 17 37 8.0 12.9 0.00 0.00 0.00 36 1011.6
20260507180007 17 59 3.2 6.4 0.00 0.00 0.00 38 1011.8
20260507175503 17 54 3.2 11.3 0.00 0.00 0.00 39 1011.9
20260507175000 17 264 4.8 6.4 0.00 0.00 0.00 43 1011.9
20260507174458 17 325 3.2 9.7 0.00 0.00 0.00 40 1012.2
20260507173955 17 31 3.2 6.4 0.00 0.00 0.00 39 1011.9
20260507173452 17 179 0.0 4.8 0.00 0.00 0.00 39 1012.2
20260507172949 17 156 0.0 9.7 0.00 0.00 0.00 44 1012.4
20260507172445 17 21 1.6 11.3 0.00 0.00 0.00 41 1012.6
20260507171942 16 329 3.2 6.4 0.00 0.00 0.00 42 1012.5
20260507171438 16 309 8.0 16.1 0.00 0.00 0.00 41 1012.7
20260507170935 16 39 6.4 12.9 0.00 0.00 0.00 42 1012.8
20260507170432 16 94 1.6 4.8 0.00 0.00 0.00 39 1012.8
20260507165928 16 283 4.8 9.7 0.00 0.00 0.00 43 1013.0
20260507165424 16 115 3.2 3.2 0.00 0.00 0.00 44 1012.8
20260507164920 16 272 6.4 9.7 0.00 0.00 0.00 47 1013.0
20260507164417 16 177 3.2 12.9 0.00 0.00 0.00 41 1013.2
20260507163914 16 93 4.8 11.3 0.00 0.00 0.00 46 1013.3
20260507163412 16 60 4.8 12.9 0.00 0.00 0.00 45 1013.3
20260507162908 15 24 11.3 16.1 0.00 0.00 0.00 48 1013.2
20260507162403 15 52 6.4 14.5 0.00 0.00 0.00 41 1013.3
20260507161901 16 67 11.3 22.5 0.00 0.00 0.00 49 1013.4
20260507161357 15 52 4.8 9.7 0.00 0.00 0.00 42 1013.8
20260507160854 16 48 6.4 9.7 0.00 0.00 0.00 51 1013.6
20260507160349 15 346 1.6 4.8 0.00 0.00 0.00 44 1013.9
20260507155846 15 115 1.6 4.8 0.00 0.00 0.00 44 1013.8
20260507155342 15 101 4.8 6.4 0.00 0.00 0.00 47 1014.0
20260507154839 15 49 3.2 4.8 0.00 0.00 0.00 52 1013.9
20260507154336 15 63 6.4 11.3 0.00 0.00 0.00 49 1014.0
20260507153833 14 53 1.6 4.8 0.00 0.00 0.00 46 1014.0
20260507153329 14 34 6.4 11.3 0.00 0.00 0.00 50 1014.0
20260507152826 15 345 4.8 11.3 0.00 0.00 0.00 46 1014.0
20260507152322 14 43 6.4 14.5 0.00 0.00 0.00 49 1014.4
20260507151819 14 340 6.4 12.9 0.00 0.00 0.00 47 1014.2
20260507151315 14 59 3.2 11.3 0.00 0.00 0.00 52 1014.2
20260507150812 14 52 4.8 9.7 0.00 0.00 0.00 49 1014.3
20260507150308 13 38 3.2 9.7 0.00 0.00 0.00 46 1014.7
20260507145805 13 30 12.9 16.1 0.00 0.00 0.00 46 1014.7
20260507145301 13 343 0.0 16.1 0.00 0.00 0.00 48 1014.7
20260507144759 13 61 8.0 14.5 0.00 0.00 0.00 51 1014.7
20260507144256 13 94 6.4 11.3 0.00 0.00 0.00 52 1015.1
20260507143752 13 29 4.8 14.5 0.00 0.00 0.00 55 1014.9
20260507143250 14 340 11.3 14.5 0.00 0.00 0.00 48 1015.0
20260507142745 13 30 6.4 11.3 0.00 0.00 0.00 50 1015.1
20260507142242 13 359 14.5 16.1 0.00 0.00 0.00 48 1015.0
20260507141739 13 110 3.2 9.7 0.00 0.00 0.00 54 1015.1
20260507141236 13 58 4.8 9.7 0.00 0.00 0.00 56 1014.9
20260507140731 13 30 3.2 4.8 0.00 0.00 0.00 51 1015.2
20260507140229 13 356 9.7 12.9 0.00 0.00 0.00 54 1015.4
20260507135726 12 55 0.0 4.8 0.00 0.00 0.00 53 1015.4
20260507135224 12 47 3.2 9.7 0.00 0.00 0.00 55 1015.4
20260507134719 12 58 3.2 4.8 0.00 0.00 0.00 54 1015.6
20260507134216 12 59 1.6 4.8 0.00 0.00 0.00 56 1015.5
20260507133712 12 43 4.8 9.7 0.00 0.00 0.00 59 1015.6
20260507133209 11 43 6.4 9.7 0.00 0.00 0.00 58 1015.7
20260507132707 11 30 8.0 9.7 0.00 0.00 0.00 61 1015.6
20260507132203 11 17 4.8 6.4 0.00 0.00 0.00 59 1015.8
20260507131700 11 36 9.7 12.9 0.00 0.00 0.00 59 1015.8
20260507131157 11 352 1.6 9.7 0.00 0.00 0.00 62 1015.7
20260507130653 11 30 6.4 9.7 0.00 0.00 0.00 60 1015.8
20260507130151 11 12 6.4 9.7 0.00 0.00 0.00 59 1015.8
20260507125650 11 38 8.0 11.3 0.00 0.00 0.00 58 1015.9
20260507125148 11 16 11.3 14.5 0.00 0.00 0.00 58 1015.8
20260507124643 11 31 6.4 6.4 0.00 0.00 0.00 59 1015.7
20260507124141 11 27 4.8 6.4 0.00 0.00 0.00 60 1015.7
20260507123639 11 23 9.7 11.3 0.00 0.00 0.00 57 1015.8
20260507123136 11 58 11.3 12.9 0.00 0.00 0.00 58 1015.4
20260507122631 11 42 4.8 11.3 0.00 0.00 0.00 60 1015.5
20260507122127 11 355 3.2 4.8 0.00 0.00 0.00 61 1015.6
20260507121623 11 37 4.8 6.4 0.00 0.00 0.00 61 1015.6
20260507121119 10 12 3.2 11.3 0.00 0.00 0.00 60 1015.4
20260507120616 10 339 3.2 11.3 0.00 0.00 0.00 64 1015.5
20260507120113 10 342 4.8 6.4 0.00 0.00 0.00 62 1015.5
20260507115609 10 43 4.8 6.4 0.00 0.00 0.00 61 1015.5
20260507115105 10 41 6.4 9.7 0.00 0.00 0.00 61 1015.5
20260507114601 10 47 4.8 9.7 0.00 0.00 0.00 60 1015.5
20260507114058 10 353 1.6 9.7 0.00 0.00 0.00 62 1015.4
20260507113555 10 357 6.4 11.3 0.00 0.00 0.00 61 1015.5
20260507113052 10 26 6.4 6.4 0.00 0.00 0.00 62 1015.5
20260507112550 10 14 1.6 3.2 0.00 0.00 0.00 67 1015.5
20260507112046 10 19 3.2 3.2 0.00 0.00 0.00 64 1015.4
20260507111544 10 18 1.6 4.8 0.00 0.00 0.00 62 1015.3
20260507111041 10 45 1.6 3.2 0.00 0.00 0.00 63 1015.2
20260507110537 10 5 1.6 1.6 0.00 0.00 0.00 63 1015.3
20260507110033 10 5 0.0 3.2 0.00 0.00 0.00 64 1015.3
20260507105530 10 9 1.6 3.2 0.00 0.00 0.00 68 1015.2
20260507105026 10 9 1.6 1.6 0.00 0.00 0.00 66 1015.1
20260507104524 10 9 1.6 1.6 0.00 0.00 0.00 63 1015.0
20260507104020 10 31 3.2 3.2 0.00 0.00 0.00 62 1014.9
20260507103516 10 12 3.2 4.8 0.00 0.00 0.00 64 1014.8
20260507103013 10 42 3.2 3.2 0.00 0.00 0.00 62 1014.7
20260507102510 10 0 1.6 3.2 0.00 0.00 0.00 65 1014.7
20260507102007 10 32 1.6 1.6 0.00 0.00 0.00 65 1014.7
20260507101501 10 348 3.2 3.2 0.00 0.00 0.00 64 1014.8
20260507100958 10 9 1.6 4.8 0.00 0.00 0.00 66 1014.6
20260507100455 10 29 1.6 4.8 0.00 0.00 0.00 70 1014.4
20260507095953 10 37 1.6 4.8 0.00 0.00 0.00 67 1014.6
20260507095451 10 37 1.6 3.2 0.00 0.00 0.00 68 1014.4
20260507094947 10 29 3.2 6.4 0.00 0.00 0.00 66 1014.4
20260507094443 11 39 3.2 4.8 0.00 0.00 0.00 66 1014.3
20260507093941 11 28 4.8 6.4 0.00 0.00 0.00 64 1014.4
20260507093438 11 68 3.2 9.7 0.00 0.00 0.00 65 1014.3
20260507092937 11 40 3.2 9.7 0.00 0.00 0.00 64 1014.3
20260507092432 11 38 4.8 6.4 0.00 0.00 0.00 65 1014.3
20260507091929 11 18 4.8 4.8 0.00 0.00 0.00 65 1014.4
20260507091426 11 10 4.8 6.4 0.00 0.00 0.00 63 1014.4
20260507090921 11 6 3.2 9.7 0.00 0.00 0.00 66 1014.4
20260507090418 11 12 4.8 6.4 0.00 0.00 0.00 64 1014.4
20260507085915 11 357 3.2 11.3 0.00 0.00 0.00 67 1014.3
20260507085412 11 29 8.0 9.7 0.00 0.00 0.00 65 1014.2
20260507084909 11 22 3.2 6.4 0.00 0.00 0.00 68 1014.2
20260507084406 11 49 4.8 11.3 0.00 0.00 0.00 67 1014.1
20260507083903 11 49 4.8 9.7 0.00 0.00 0.00 66 1014.2
20260507083359 11 19 8.0 12.9 0.00 0.00 0.00 65 1014.3
20260507082855 11 347 8.0 11.3 0.00 0.00 0.00 68 1014.4
20260507082351 11 354 3.2 6.4 0.00 0.00 0.00 72 1014.2
20260507081848 11 38 8.0 11.3 0.00 0.00 0.00 71 1014.1
20260507081345 11 41 6.4 6.4 0.00 0.00 0.00 72 1014.1
20260507080842 11 16 3.2 6.4 0.00 0.00 0.00 72 1014.2
20260507080337 11 41 4.8 9.7 0.00 0.00 0.00 73 1013.9
20260507075833 11 48 4.8 9.7 0.00 0.00 0.00 72 1014.0
20260507075329 11 342 4.8 9.7 0.00 0.00 0.00 73 1013.8
20260507074826 11 57 3.2 12.9 0.00 0.00 0.00 74 1013.9
20260507074323 11 53 4.8 6.4 0.00 0.00 0.00 75 1013.6
20260507073820 11 37 6.4 9.7 0.00 0.00 0.00 74 1013.4
20260507073317 11 37 9.7 12.9 0.00 0.00 0.00 74 1013.5
20260507072814 11 52 8.0 11.3 0.00 0.00 0.00 74 1013.6
20260507072312 11 3 4.8 12.9 0.00 0.00 0.00 77 1013.6
20260507071809 11 31 3.2 4.8 0.00 0.00 0.00 77 1013.4
20260507071305 11 18 3.2 4.8 0.00 0.00 0.00 76 1013.9
20260507070802 12 356 3.2 4.8 0.00 0.00 0.00 77 1013.9
20260507070259 12 75 0.0 1.6 0.00 0.00 0.00 77 1013.8
20260507065756 12 14 4.8 11.3 0.00 0.00 0.00 76 1013.9
20260507065253 12 45 6.4 9.7 0.00 0.00 0.00 75 1014.1
20260507064750 12 345 3.2 6.4 0.00 0.00 0.00 76 1014.0
20260507064249 12 54 3.2 6.4 0.00 0.00 0.00 76 1014.1
20260507063746 12 49 6.4 9.7 0.00 0.00 0.00 77 1014.0
20260507063242 12 27 1.6 3.2 0.00 0.00 0.00 78 1014.1
20260507062739 12 53 0.0 1.6 0.00 0.00 0.00 78 1014.0
20260507062237 12 40 3.2 4.8 0.00 0.00 0.00 76 1014.2
20260507061735 12 54 0.0 3.2 0.00 0.00 0.00 77 1014.1
20260507061232 12 58 0.0 3.2 0.00 0.00 0.00 78 1014.3
20260507060730 12 62 0.0 4.8 0.00 0.00 0.00 77 1014.2
20260507060227 12 54 3.2 4.8 0.00 0.00 0.00 77 1014.2
20260507055723 12 2 8.0 9.7 0.00 0.00 0.00 76 1014.3
20260507055218 12 10 3.2 3.2 0.00 0.00 0.00 77 1014.4
20260507054715 12 348 1.6 6.4 0.00 0.00 0.00 78 1014.3
20260507054212 12 32 1.6 3.2 0.00 0.00 0.00 78 1014.2
20260507053709 12 41 0.0 4.8 0.00 0.00 0.00 78 1014.3
20260507053207 12 83 1.6 6.4 0.00 0.00 0.00 78 1014.1
20260507052706 12 29 6.4 6.4 0.00 0.00 0.00 78 1013.8
20260507052201 12 7 4.8 12.9 0.00 0.00 0.00 77 1013.8
20260507051659 12 42 4.8 6.4 0.00 0.00 0.00 77 1013.8
20260507051156 12 33 8.0 9.7 0.00 0.00 0.00 77 1013.9
20260507050653 12 20 8.0 11.3 0.00 0.00 0.00 78 1013.9
20260507050149 12 27 1.6 6.4 0.00 0.00 0.00 79 1013.9
20260507045646 12 49 4.8 6.4 0.00 0.00 0.00 79 1013.9
20260507045143 12 58 3.2 6.4 0.00 0.00 0.00 79 1013.9
20260507044640 12 78 3.2 4.8 0.00 0.00 0.00 79 1013.9
20260507044137 12 48 1.6 9.7 0.00 0.00 0.00 80 1013.9
20260507043633 12 22 8.0 12.9 0.00 0.00 0.00 80 1013.6
20260507043130 12 39 4.8 6.4 0.00 0.00 0.00 81 1013.8
20260507042626 12 8 4.8 9.7 0.00 0.00 0.00 82 1013.7
20260507042121 12 39 3.2 4.8 0.00 0.00 0.00 82 1013.8
20260507041618 12 44 1.6 4.8 0.00 0.00 0.00 83 1014.1
20260507041115 12 82 0.0 0.0 0.00 0.00 0.00 83 1014.1
20260507040612 12 82 1.6 1.6 0.00 0.00 0.00 83 1014.1
20260507040108 12 60 0.0 1.6 0.00 0.43 0.43 83 1013.8
20260507035604 12 60 0.0 1.6 0.00 0.43 0.43 83 1013.8
20260507035100 12 46 3.2 11.3 0.00 0.43 0.43 82 1014.1
20260507034557 12 352 3.2 11.3 0.00 0.43 0.43 83 1014.2
20260507034055 12 353 3.2 6.4 0.00 0.43 0.43 83 1013.8
20260507033553 12 4 6.4 9.7 0.00 0.43 0.43 83 1013.5
20260507033050 12 56 0.0 0.0 0.00 0.43 0.43 83 1013.8
20260507032547 13 19 1.6 3.2 0.00 0.43 0.43 83 1013.8
20260507032043 12 63 1.6 3.2 0.00 0.43 0.43 82 1013.8
20260507031540 13 8 0.0 0.0 0.00 0.43 0.43 83 1013.9
20260507031037 13 9 1.6 3.2 0.00 0.43 0.43 82 1013.8
20260507030534 13 44 8.0 12.9 0.00 0.43 0.43 82 1014.0
20260507030032 13 46 1.6 3.2 0.00 0.43 0.43 83 1014.0
20260507025528 13 55 3.2 9.7 0.00 0.43 0.43 83 1014.0
20260507025026 13 321 6.4 11.3 0.00 0.43 0.43 83 1014.1
20260507024523 13 51 6.4 9.7 0.00 0.43 0.43 84 1013.9
20260507024020 13 300 3.2 12.9 0.00 0.43 0.43 84 1013.8
20260507023516 13 53 6.4 6.4 0.00 0.43 0.43 84 1013.5
20260507023014 13 336 8.0 12.9 0.00 0.43 0.43 84 1013.3
20260507022510 13 31 11.3 16.1 0.00 0.43 0.43 84 1013.2
20260507022006 13 40 8.0 12.9 0.00 0.43 0.43 84 1013.4
20260507021502 13 35 3.2 11.3 0.00 0.43 0.43 85 1013.5
20260507020959 13 31 3.2 12.9 0.00 0.43 0.43 84 1013.4
20260507020456 13 49 9.7 11.3 0.00 0.43 0.43 85 1013.3
20260507015952 13 55 3.2 11.3 0.00 0.43 0.43 85 1013.2
20260507015451 13 120 4.8 4.8 0.00 0.43 0.43 84 1013.2
20260507014948 13 76 4.8 6.4 0.00 0.43 0.43 84 1013.1
20260507014444 13 82 4.8 11.3 0.00 0.43 0.43 83 1013.0
20260507013940 14 45 3.2 14.5 0.00 0.43 0.43 83 1012.8
20260507013437 14 43 3.2 11.3 0.00 0.43 0.43 82 1013.1
20260507012935 14 54 1.6 20.9 0.00 0.43 0.43 82 1012.9
20260507012431 14 29 9.7 14.5 0.00 0.43 0.43 82 1012.8
20260507011928 14 27 9.7 12.9 0.00 0.43 0.43 83 1013.0
20260507011426 15 28 4.8 6.4 0.00 0.43 0.43 84 1013.0
20260507010925 15 28 4.8 6.4 0.00 0.43 0.43 84 1013.0
20260507010421 15 42 0.0 3.2 0.00 0.43 0.43 81 1012.7
20260507005918 15 66 0.0 4.8 0.00 0.43 0.43 82 1012.8
20260507005415 15 71 3.2 11.3 0.00 0.43 0.43 80 1012.7
20260507004911 15 114 8.0 9.7 0.00 0.43 0.43 80 1013.1
20260507004408 15 36 1.6 3.2 0.00 0.43 0.43 80 1013.3
20260507003906 15 71 0.0 4.8 0.00 0.43 0.43 80 1013.1
20260507003401 15 111 4.8 4.8 0.00 0.43 0.43 81 1013.2
20260507002856 15 31 3.2 4.8 0.00 0.43 0.43 81 1012.8
20260507002352 15 91 3.2 9.7 0.00 0.43 0.43 82 1012.6
20260507001850 15 174 0.0 3.2 0.00 0.43 0.43 84 1012.5
20260507001346 15 53 0.0 4.8 0.00 0.43 0.43 83 1012.4
20260507000843 16 105 1.6 4.8 0.00 0.43 0.43 83 1012.4
20260507000338 16 297 4.8 12.9 0.00 0.43 0.43 80 1012.4
20260506235835 16 45 8.0 17.7 0.00 0.43 0.43 80 1012.4
20260506235332 16 136 0.0 12.9 0.00 0.43 0.43 79 1011.9
20260506234828 16 323 1.6 4.8 0.00 0.43 0.43 82 1012.2
20260506234326 16 93 0.0 0.0 0.00 0.43 0.43 84 1011.8
20260506233824 16 258 0.0 9.7 0.00 0.43 0.43 82 1012.1
20260506233319 16 233 0.0 1.6 0.00 0.43 0.43 83 1011.7
20260506232816 16 46 3.2 6.4 0.00 0.43 0.43 83 1011.4
20260506232311 16 353 3.2 9.7 0.00 0.43 0.43 83 1011.4
20260506231808 17 22 4.8 14.5 0.00 0.43 0.43 82 1011.4
20260506231306 17 39 1.6 6.4 0.00 0.43 0.43 84 1011.4
20260506230803 17 250 1.6 14.5 0.00 0.43 0.43 83 1011.0
20260506230300 17 277 3.2 4.8 0.00 0.43 0.43 84 1011.3
20260506225756 17 30 4.8 6.4 0.00 0.43 0.43 86 1011.3
20260506225254 17 335 3.2 4.8 0.00 0.43 0.43 88 1011.2
20260506224750 17 35 1.6 11.3 0.00 0.43 0.43 89 1011.0
20260506224248 17 73 4.8 11.3 0.00 0.43 0.43 87 1011.0
20260506223744 17 46 6.4 12.9 0.00 0.43 0.43 86 1011.2
20260506223240 17 42 6.4 9.7 0.00 0.43 0.43 87 1011.2
20260506222737 17 43 3.2 6.4 0.00 0.43 0.43 86 1011.2
20260506222232 18 308 6.4 9.7 0.00 0.43 0.43 85 1010.9
20260506221730 18 257 1.6 16.1 0.00 0.43 0.43 86 1011.0
20260506221228 18 308 3.2 9.7 0.00 0.43 0.43 86 1010.9
20260506220725 18 51 3.2 3.2 0.00 0.43 0.43 88 1010.8
20260506220219 18 25 0.0 3.2 0.00 0.43 0.43 89 1010.7
20260506215717 18 261 1.6 4.8 0.00 0.43 0.43 87 1010.7
20260506215212 18 322 3.2 4.8 0.00 0.43 0.43 87 1010.6
20260506214709 18 329 4.8 9.7 0.00 0.43 0.43 86 1010.3
20260506214206 18 258 3.2 20.9 0.00 0.43 0.43 86 1010.5
20260506213705 18 304 6.4 6.4 0.00 0.43 0.43 89 1010.2
20260506213202 18 348 1.6 3.2 0.00 0.43 0.43 91 1010.4
20260506212659 18 295 1.6 4.8 0.00 0.43 0.43 92 1010.4
20260506212154 17 346 3.2 9.7 0.00 0.43 0.43 95 1010.5
20260506211649 18 290 0.0 3.2 0.00 0.43 0.43 96 1010.5
20260506211146 18 289 3.2 3.2 0.18 0.43 0.43 96 1010.4
20260506210643 18 122 0.0 1.6 0.18 0.43 0.43 95 1010.4
20260506210140 18 122 0.0 1.6 0.00 0.41 0.41 95 1010.1
20260506205637 18 122 3.2 3.2 0.00 0.41 0.41 94 1009.9
20260506205131 18 130 3.2 3.2 0.00 0.41 0.41 94 1009.9
20260506204630 18 132 0.0 0.0 0.00 0.41 0.41 93 1009.7
20260506204126 18 132 0.0 0.0 0.00 0.41 0.41 93 1009.7
20260506203625 18 132 0.0 0.0 0.00 0.41 0.41 93 1009.8
20260506203121 18 132 0.0 1.6 0.00 0.41 0.41 92 1009.8
20260506202619 18 132 0.0 1.6 0.00 0.41 0.41 91 1009.6
20260506202115 18 132 0.0 0.0 0.00 0.41 0.41 92 1009.8
20260506201612 18 132 0.0 1.6 0.00 0.41 0.41 91 1009.4
20260506201109 18 132 1.6 1.6 0.00 0.41 0.41 91 1009.6
20260506200605 18 132 0.0 3.2 0.00 0.41 0.41 90 1009.7
20260506195559 19 147 1.6 3.2 0.00 0.41 0.41 89 1009.6
20260506195055 18 147 1.6 3.2 0.00 0.41 0.41 89 1009.6
20260506194553 18 249 1.6 1.6 0.00 0.41 0.41 90 1009.7
20260506194049 18 249 0.0 1.6 0.00 0.41 0.41 91 1009.7
20260506193547 18 249 1.6 3.2 0.00 0.41 0.41 89 1009.7
20260506193044 18 158 1.6 1.6 0.00 0.41 0.41 91 1009.7
20260506192541 18 158 1.6 1.6 0.00 0.41 0.41 91 1009.7
20260506192036 18 158 3.2 3.2 0.00 0.41 0.41 90 1009.8
20260506191534 18 158 0.0 0.0 0.00 0.41 0.41 91 1009.7
20260506191029 18 158 0.0 1.6 0.00 0.41 0.41 91 1009.6
20260506190527 18 158 0.0 1.6 0.00 0.41 0.41 90 1009.9
20260506190024 18 158 3.2 4.8 0.00 0.41 0.41 89 1009.7